Weather in Pomos'yal

Russia / Mari El Republic     56°52′43″N   49°23′57″E
temp.,
°C
wind,
m/s
gust,
m/s
humid.,
%
clouds,
%
prec.,
mm/h
press.,
hPa
HPBL,
m
3 march, wed
wed300:00−5w489585 0.0 998194
03:00−7w359778 0.0 99891
06:00−4w4996100 0.2 998316
09:00−4nw51094100 0.6 1000565
12:00−4nw71191100 0.3 1000669
15:00−5nw71088100 0.4 1001798
18:00−6wnw51192100 0.1 1002605
21:00−7wnw5129099 0.1 1003528
4 march, thu
thu400:00−8wsw4992100 0.1 1000253
03:00−6wsw51195100 0.6 999462
06:00−5wsw5119498 0.4 996412
09:00−4sw6119399 0.6 995659
12:00−2sw71294100 0.8 992932
15:00−2w71193100 3.1 990913
18:00−5w7158765 0.1 992607
21:00−5wnw7149370 0.2 995465
5 march, fri
fri500:00−8wnw499699 0.1 997191
03:00−12wnw349890 0.1 99967
06:00−15nw349781 0.0 100137
09:00−13nw359458 0.0 1002185
12:00−11nw349066 0.0 1003329
15:00−12nw469155 0.0 1004416
18:00−15wnw369678 0.0 100798
21:00−16wnw349786 0.1 100972
6 march, sat
sat600:00−17wnw349770 0.0 101046
03:00−17wsw349847 0.0 101152
06:00−17sw349878 0.0 101180
09:00−13wsw479478 0.0 1011256
12:00−10wsw4792100 0.1 1011459
15:00−10w4690100 0.3 1010685
18:00−16nw349290 0.1 101046
21:00−19wnw349645 0.1 101130
7 march, sun
sun700:00−19wsw34951 0.0 101036
03:00−19wsw469829 0.0 1010113
06:00−19sw479972 0.0 1010113
09:00−15sw499572 0.0 1009268
12:00−10ssw61086100 0.0 1007581
15:00−10s71289100 0.0 1004649
18:00−11s81590100 0.1 1002722
21:00−8s91594100 0.5 998918